This demonstration page uses our WeatherBlox Daily Observations layout. Learn more.

38.89511, -77.03637

Hourly Observations for April 19, 2015

Temp ( °F °C ) Dew Point ( °F °C ) Humidity (%) Winds ( mph kmh ) Pressure ( in mb ) Visibility ( mi km ) Precip ( " mm )
12:52 am 00:52 Mostly Cloudy 64 18 55 13 73 73 S 5 7 30.03 1017 10 16.09344 0 0
1:52 am 01:52 Mostly Cloudy 63 17 54 12 73 73 S 6 9 30.03 1017 10 16.09344 0 0
2:52 am 02:52 Mostly Cloudy 64 18 54 12 68 68 NE 12 19 30.06 1018 10 16.09344 0 0
3:52 am 03:52 Mostly Cloudy 64 18 50 10 60 60 NE 9 15 30.06 1018 10 16.09344 0 0
4:52 am 04:52 Mostly Cloudy 64 18 48 9 56 56 ENE 10 17 30.09 1019 10 16.09344 0 0
5:52 am 05:52 Mostly Cloudy 64 18 39 4 40 40 ENE 12 19 30.09 1019 10 16.09344 0 0
6:52 am 06:52 Cloudy 63 17 36 2 37 37 ENE 12 19 30.12 1020 10 16.09344 0 0
7:52 am 07:52 Cloudy 63 17 36 2 37 37 ENE 9 15 30.15 1021 10 16.09344 0 0
8:52 am 08:52 Cloudy 64 18 37 3 37 37 E 14 22 30.15 1021 10 16.09344 0.01 0.254
9:52 am 09:52 Cloudy 64 18 39 4 40 40 E 14 22 30.18 1022 10 16.09344 0 0
10:52 am 10:52 Mostly Cloudy 66 19 41 5 40 40 E 14 22 30.18 1022 10 16.09344 0 0
11:52 am 11:52 Mostly Cloudy 68 20 45 7 43 43 E 15 24 30.18 1022 10 16.09344 0 0
12:52 pm 12:52 Mostly Cloudy 66 19 46 8 49 49 E 16 26 30.12 1020 10 16.09344 0 0
1:52 pm 13:52 Mostly Cloudy 70 21 48 9 46 46 ESE 16 26 30.09 1019 10 16.09344 0 0
2:52 pm 14:52 Mostly Cloudy 70 21 48 9 46 46 E 17 28 30.09 1019 10 16.09344 0 0
3:52 pm 15:52 Cloudy 66 19 48 9 52 52 ESE 17 28 30.09 1019 10 16.09344 0 0
4:52 pm 16:52 Cloudy 64 18 48 9 56 56 E 15 24 30.09 1019 10 16.09344 0 0
5:52 pm 17:52 Cloudy 63 17 46 8 56 56 E 18 30 30.06 1018 10 16.09344 0 0
6:47 pm 18:47 Cloudy with Light Rain 61 16 45 7 55 55 E 14 22 30.06 1018 9 14.484096 0.001 0.001
6:52 pm 18:52 Cloudy with Light Rain 61 16 45 7 55 55 ENE 16 26 30.06 1018 10 16.09344 0.01 0.254
6:59 pm 18:59 Cloudy with Light Rain 59 15 45 7 59 59 E 14 22 30.06 1018 10 16.09344 0.001 0.001
7:52 pm 19:52 Cloudy with Light Rain 57 14 45 7 63 63 ENE 9 15 30.03 1017 10 16.09344 0.01 0.254
8:52 pm 20:52 Cloudy with Light Rain 57 14 48 9 72 72 E 10 17 30 1016 9 14.484096 0.02 0.508
9:52 pm 21:52 Cloudy with Rain 55 13 50 10 82 82 E 10 17 29.97 1015 4 6.437376 0.09 2.286
10:52 pm 22:52 Cloudy with Light Rain 55 13 50 10 82 82 E 17 28 29.94 1014 4 6.437376 0.1 2.54
10:55 pm 22:55 Cloudy with Light Rain 55 13 50 10 82 82 E 15 24 29.94 1014 6 9.656064 0.001 0.001
11:52 pm 23:52 Cloudy with Light Rain 55 13 52 11 88 88 E 16 26 29.88 1012 6 9.656064 0.05 1.27

Powered by AerisWeather